Rogers City, MI

6:17 AM EDT on June 23, 2017 (GMT -0400)
Presque Isle County

Weather History for KPZQ - August, 2013

Change the Weather History Date:

Monday, August 5, 2013

  Actual Average (KAPN) Record (KAPN)
Temperature  
Mean Temperature 60 °F -  
Max Temperature 69 °F 78 °F 97 °F (1931)
Min Temperature 50 °F 52 °F 37 °F (1951)
Degree Days  
Heating Degree Days 6    
Growing Degree Days 10 (Base 50)    
Moisture  
Dew Point 54 °F    
Average Humidity 82    
Maximum Humidity 92    
Minimum Humidity 58    
Precipitation  
Precipitation 0.00 in - - ()
Sea Level Pressure  
Sea Level Pressure 30.04 in    
Wind  
Wind Speed 4 mph (SSE)    
Max Wind Speed 13 mph    
Max Gust Speed -    
Visibility 10 miles    
Events Rain    
Averages and records for this station are not official NWS values.
T = Trace of Precipitation, MM = Missing Value Source: NWS Daily Summary

Daily Weather History Graph

Daily Weather History Graph

Search for Another Location

Airport or City:

Trip Planner

Search our weather history database for the weather conditions in past years. The results will help you decide how hot, cold, wet, or windy it might be!

Date:

Astronomy

Aug. 05, 2013 Rise Set
Actual Time 6:24 AM EDT 8:57 PM EDT
Civil Twilight 5:50 AM EDT 9:30 PM EDT
Nautical Twilight 5:08 AM EDT 10:12 PM EDT
Astronomical Twilight 4:20 AM EDT 11:00 PM EDT
Moon 5:19 AM EDT (8/5) 7:55 PM EDT (8/5)
Length of Visible Light 15h 39m
Length of Day
14h 32m
Waning Crescent, 1% of the Moon is Illuminated
Aug 5
Waning Crescent
Aug 6
New
Aug 14
First Quarter
Aug 20
Full
Aug 28
Last Quarter

Hourly Weather History & Observations

Time (EDT) Temp. Dew Point Humidity Pressure Visibility Wind Dir Wind Speed Gust Speed Precip Events Conditions
12:14 AM 52.2 °F 49.1 °F 89% 30.12 in 10.0 mi Calm Calm - N/A   Clear
12:35 AM 51.4 °F 48.6 °F 90% 30.12 in 10.0 mi WSW 3.5 mph - N/A   Clear
12:55 AM 50.5 °F 48.2 °F 92% 30.11 in 10.0 mi WSW 3.5 mph - N/A   Clear
1:14 AM 50.9 °F 48.0 °F 90% 30.11 in 10.0 mi Calm Calm - N/A   Clear
1:35 AM 50.4 °F 48.2 °F 92% 30.11 in 10.0 mi SW 3.5 mph - N/A   Clear
1:55 AM 51.1 °F 48.6 °F 91% 30.11 in 10.0 mi SW 5.8 mph - N/A   Clear
2:14 AM 50.9 °F 48.4 °F 91% 30.11 in 10.0 mi SSW 4.6 mph - N/A   Clear
2:35 AM 53.6 °F 50.4 °F 89% 30.10 in 10.0 mi South 4.6 mph - N/A   Clear
2:54 AM 52.2 °F 49.3 °F 90% 30.12 in 10.0 mi West 4.6 mph - N/A   Clear
3:14 AM 50.2 °F 47.7 °F 91% 30.12 in 10.0 mi SW 5.8 mph - N/A   Clear
3:35 AM 51.1 °F 48.7 °F 92% 30.11 in 10.0 mi SW 4.6 mph - N/A   Clear
3:54 AM 51.3 °F 48.7 °F 91% 30.11 in 10.0 mi SSW 3.5 mph - N/A   Clear
4:15 AM 51.6 °F 49.1 °F 91% 30.10 in 10.0 mi South 4.6 mph - N/A   Clear
4:35 AM 50.4 °F 48.2 °F 92% 30.10 in 10.0 mi Calm Calm - N/A   Clear
4:54 AM 50.9 °F 48.2 °F 90% 30.10 in 10.0 mi South 3.5 mph - N/A   Clear
5:15 AM 50.4 °F 47.8 °F 91% 30.10 in 10.0 mi SSW 3.5 mph - N/A   Clear
5:34 AM 50.9 °F 48.2 °F 90% 30.10 in 10.0 mi SSW 3.5 mph - N/A   Clear
5:55 AM 50.0 °F 47.5 °F 91% 30.09 in 10.0 mi SSW 3.5 mph - N/A   Clear
6:15 AM 50.2 °F 47.7 °F 91% 30.10 in 10.0 mi Calm Calm - N/A   Clear
6:34 AM 50.4 °F 47.8 °F 91% 30.09 in 10.0 mi SW 4.6 mph - N/A   Clear
6:55 AM 50.7 °F 48.0 °F 90% 30.10 in 10.0 mi SSW 4.6 mph - N/A   Clear
7:15 AM 50.0 °F 47.5 °F 91% 30.10 in 10.0 mi Calm Calm - N/A   Clear
7:34 AM 50.2 °F 47.7 °F 91% 30.10 in 10.0 mi SW 3.5 mph - N/A   Clear
7:55 AM 54.3 °F 51.3 °F 89% 30.10 in 10.0 mi Calm Calm - N/A   Clear
8:14 AM 56.5 °F 52.0 °F 85% 30.11 in 10.0 mi Calm Calm - N/A   Clear
8:34 AM 59.0 °F 53.1 °F 81% 30.10 in 10.0 mi Calm Calm - N/A   Clear
8:55 AM 61.2 °F 54.0 °F 77% 30.10 in 10.0 mi Calm Calm - N/A   Clear
9:14 AM 62.8 °F 54.1 °F 73% 30.10 in 10.0 mi Calm Calm - N/A   Clear
9:35 AM 63.7 °F 52.7 °F 67% 30.10 in 10.0 mi Calm Calm - N/A   Clear
9:55 AM 64.4 °F 53.2 °F 67% 30.09 in 10.0 mi Calm Calm - N/A   Clear
10:14 AM 65.5 °F 52.9 °F 64% 30.08 in 10.0 mi SE 5.8 mph - N/A   Clear
10:35 AM 65.8 °F 53.1 °F 63% 30.08 in 10.0 mi Calm Calm - N/A   Clear
10:55 AM 66.0 °F 53.1 °F 63% 30.08 in 10.0 mi Calm Calm - N/A   Clear
11:14 AM 66.2 °F 52.5 °F 61% 30.07 in 10.0 mi ESE 3.5 mph - N/A   Clear
11:35 AM 66.6 °F 51.3 °F 58% 30.07 in 10.0 mi Calm Calm - N/A   Clear
11:54 AM 67.6 °F 55.0 °F 64% 30.06 in 10.0 mi ENE 6.9 mph - N/A   Clear
12:15 PM 67.5 °F 56.5 °F 68% 30.05 in 10.0 mi NE 10.4 mph - N/A   Scattered Clouds
12:35 PM 65.5 °F 56.1 °F 72% 30.05 in 10.0 mi ENE 10.4 mph - N/A   Mostly Cloudy
12:54 PM 65.7 °F 57.0 °F 74% 30.04 in 10.0 mi ENE 12.7 mph - N/A   Mostly Cloudy
1:15 PM 66.4 °F 57.0 °F 72% 30.04 in 10.0 mi ENE 10.4 mph - N/A   Scattered Clouds
1:35 PM 66.7 °F 57.7 °F 73% 30.03 in 10.0 mi ENE 8.1 mph - N/A   Scattered Clouds
1:54 PM 67.3 °F 57.4 °F 70% 30.03 in 10.0 mi NE 8.1 mph - N/A   Scattered Clouds
2:15 PM 65.1 °F 58.6 °F 79% 30.02 in 10.0 mi ENE 8.1 mph - N/A   Mostly Cloudy
2:34 PM 64.8 °F 59.0 °F 82% 30.02 in 10.0 mi ENE 9.2 mph - N/A   Overcast
2:54 PM 65.1 °F 59.5 °F 82% 30.02 in 10.0 mi ENE 6.9 mph - N/A   Overcast
3:14 PM 68.4 °F 60.1 °F 75% 30.01 in 10.0 mi East 10.4 mph - N/A   Scattered Clouds
3:34 PM 69.1 °F 59.9 °F 72% 30.00 in 10.0 mi East 10.4 mph - N/A   Scattered Clouds
3:55 PM 68.0 °F 59.9 °F 75% 30.00 in 10.0 mi ENE 8.1 mph - N/A   Mostly Cloudy
4:14 PM 67.8 °F 59.4 °F 74% 29.99 in 10.0 mi ENE 11.5 mph - N/A   Scattered Clouds
4:35 PM 66.4 °F 59.9 °F 80% 29.98 in 10.0 mi East 8.1 mph - N/A   Clear
4:55 PM 66.7 °F 59.9 °F 79% 29.98 in 10.0 mi ENE 6.9 mph - N/A   Mostly Cloudy
5:14 PM 68.4 °F 59.9 °F 74% 29.97 in 10.0 mi East 5.8 mph - N/A   Scattered Clouds
5:35 PM 68.5 °F 57.7 °F 68% 29.97 in 10.0 mi East 5.8 mph - N/A   Mostly Cloudy
5:54 PM 68.2 °F 57.9 °F 70% 29.97 in 10.0 mi ENE 3.5 mph - N/A   Overcast
6:14 PM 68.2 °F 59.4 °F 73% 29.97 in 10.0 mi Calm Calm - N/A   Overcast
6:34 PM 68.2 °F 58.5 °F 71% 29.97 in 10.0 mi SSW 8.1 mph - N/A Rain Light Rain
6:54 PM 64.6 °F 57.9 °F 79% 29.97 in 7.0 mi WSW 8.1 mph - N/A Rain Light Rain
7:15 PM 63.3 °F 57.4 °F 81% 29.97 in 7.0 mi Calm Calm - N/A Rain Light Rain
7:34 PM 62.8 °F 59.0 °F 87% 29.97 in 10.0 mi WSW 4.6 mph - N/A   Overcast
7:55 PM 63.3 °F 59.9 °F 89% 29.97 in 7.0 mi WSW 3.5 mph - N/A   Overcast
8:14 PM 62.8 °F 59.9 °F 90% 29.97 in 10.0 mi WSW 3.5 mph - N/A   Overcast
8:34 PM 62.6 °F 59.7 °F 90% 29.96 in 10.0 mi SW 3.5 mph - N/A   Overcast
8:54 PM 62.6 °F 59.4 °F 89% 29.96 in 10.0 mi Calm Calm - N/A   Overcast
9:14 PM 62.1 °F 59.0 °F 90% 29.96 in 10.0 mi Calm Calm - N/A   Overcast
9:35 PM 62.2 °F 59.0 °F 89% 29.96 in 10.0 mi Calm Calm - N/A   Overcast
9:54 PM 61.9 °F 58.6 °F 89% 29.96 in 10.0 mi South 3.5 mph - N/A   Overcast
10:15 PM 61.9 °F 57.7 °F 86% 29.95 in 10.0 mi SSW 3.5 mph - N/A   Overcast
10:35 PM 62.1 °F 58.3 °F 87% 29.95 in 10.0 mi SSE 3.5 mph - N/A   Overcast
10:54 PM 62.2 °F 58.5 °F 87% 29.95 in 10.0 mi Calm Calm - N/A   Overcast
11:15 PM 62.1 °F 58.1 °F 87% 29.93 in 10.0 mi SE 4.6 mph - N/A   Overcast
11:34 PM 62.4 °F 57.9 °F 85% 29.93 in 10.0 mi SSE 3.5 mph - N/A   Overcast
11:54 PM 62.6 °F 57.6 °F 84% 29.93 in 10.0 mi SSE 4.6 mph - N/A   Overcast